COSMOS 2547 [GLONASS-K]

Last updated on Nov. 25, 2020, 12:02 a.m. UTC

1 46805U 20075A   20328.95604139 -.00000045  00000-0  00000-0 0  9999
2 46805  64.7973 260.7849 0007572 232.4414 128.7808  2.13146551   628
UTC
Height (km)
Latitude
Longitude
Inclination
Orbital Period
UTC large
Height (km)
Speed (km/s)
/
Latitude / Longitude
Inclination (degrees)
Orbital Period (minutes)
Azimuth
Elevation
Range (km)
Doppler Factor
iOS Compass Heading
iOS Angle

Next 30 passes for location: Hong Kong

Rise time Rise Azimuth (degrees) Set time Set Azimuth (degrees) Duration Max altitude (degrees)

No matching passes for this satellites